Tracking 28790 objects as of 19-Apr-2024
HD Live streaming from Space Station
objects crossing your sky now

PEGASUS R/B

Track PEGASUS R/B now!
10-day predictions


NORAD ID: 27784
Int'l Code: 2003-017B
Perigee: 686.2 km
Apogee: 693.4 km
Inclination: 29.0 °
Period: 98.4 minutes
Semi major axis: 7060 km
RCS: 1.3949 m2 (large)
Launch date: April 28, 2003
Source: United States (US)
Launch site: AIR FORCE EASTERN TEST RANGE (AFETR)

Note: This is a ROCKET BODY
Your satellite tracking list
Your tracking list is empty




NASA's NSSDC Master Catalog

Two Line Element Set (TLE):
1 27784U 03017B   24109.57612927  .00001847  00000-0  33139-3 0  9996
2 27784  29.0038 297.2657 0005114 159.6052 200.4741 14.63266974121346
Source of the keplerian elements: AFSPC